Location: Unspecified
(41.1637°N, 24.2901°E)
Time: 14:06:59
(UTC+02:00)

ISS - Pass Details

Date: 26 June 2022
Orbit: 414 x 420 km, 51.6° (Epoch: 05 July)

Event Time Altitude Azimuth Distance (km) Brightness Sun altitude
Exits shadow 04:08:12 10° 221° (SW) 1,519 -1.6 -7.4°
Reaches altitude 10° 04:08:16 10° 221° (SW) 1,489 -1.6 -7.4°
Maximum altitude 04:11:34 60° 140° (SE) 483 -3.4 -6.9°
Drops below altitude 10° 04:14:54 10° 60° (ENE) 1,501 0.8 -6.4°
Sets 04:17:01 0° 57° (ENE) 2,369 2.7 -6.1°
